GFSNIL_sfc_temp_009.txt.gz
Temp
67 66 67 67 67 67 67 67 69 69 69 70 70 70 70 70 70 69 68 68 68 68
67 67 68 68 68 68 68 69 70 70 69 70 69 69 68 68 70 69 68 69 69 68
67 67 67 68 68 68 69 69 70 70 69 69 69 69 69 68 68 68 67 67 67 67
67 68 67 67 68 68 69 69 68 69 69 68 68 68 68 68 68 67 67 67 67 67
67 68 68 68 68 69 68 68 68 69 68 68 67 68 68 67 67 67 66 66 66 66
68 68 67 68 68 68 68 67 68 68 68 67 66 65 65 65 64 63 63 63 63 63
70 71 69 68 68 68 68 66 66 67 67 67 66 65 65 64 63 62 61 62 62 62
70 71 72 69 68 68 68 66 66 66 65 65 65 65 63 63 62 61 60 60 60 61
69 70 71 68 68 67 67 66 66 65 64 63 64 62 63 64 62 61 60 57 56 57
72 70 69 68 66 66 64 64 62 61 58 56 55 58 61 63 62 62 60 59 58 61
72 71 67 66 65 63 62 62 61 59 56 53 54 55 59 61 58 55 55 56 56 55
66 66 65 64 62 61 59 56 55 53 56 55 53 53 58 60 58 55 52 53 54 54
61 62 60 61 60 59 57 54 53 51 50 52 52 50 54 60 60 56 54 54 53 53
56 55 54 54 53 53 53 51 49 49 49 49 50 49 50 53 58 55 52 51 50 50

GFSNIL_sfc_temp_015.txt.gz
Temp
65 64 64 64 64 64 64 65 66 66 67 67 68 68 67 66 66 67 67 66 67 66
64 64 64 65 66 65 65 66 67 67 66 67 68 68 67 66 66 67 66 66 67 66
64 64 64 65 65 65 65 66 66 66 67 67 67 67 66 66 66 66 66 67 67 66
64 64 64 64 64 64 65 65 65 66 66 66 66 66 65 65 66 66 66 66 66 65
64 65 64 64 65 64 64 65 65 66 66 67 67 66 65 66 67 66 66 66 65 64
64 64 64 64 64 64 64 64 64 64 65 64 64 64 63 64 63 64 65 65 65 64
63 64 64 65 64 64 64 63 63 63 63 64 63 63 63 62 62 62 62 62 63 63
65 65 65 65 64 63 63 62 62 62 62 63 64 64 63 63 62 61 60 60 61 62
66 65 64 64 63 63 61 57 59 59 62 62 64 59 61 62 60 59 58 57 58 59
65 64 64 63 62 60 57 54 53 56 58 59 60 57 58 60 57 58 58 57 57 59
65 64 62 59 57 56 56 51 51 51 52 57 56 55 55 56 52 50 50 50 52 53
65 62 59 55 53 53 52 48 48 52 54 56 55 53 54 53 51 49 48 50 52 51
64 60 56 53 51 50 50 48 50 52 53 55 55 52 52 54 52 50 50 50 50 54
58 55 54 52 51 50 48 48 48 49 51 51 52 52 50 52 54 54 52 51 50 51

GFSNIL_sfc_temp_021.txt.gz
Temp
74 77 76 74 74 73 71 72 75 76 76 77 77 77 77 78 76 76 75 76 76 77
74 74 74 74 75 75 73 72 74 76 77 77 77 76 76 75 75 76 76 76 76 76
75 75 75 75 74 73 72 72 70 71 74 77 76 76 75 74 75 74 74 75 75 75
76 75 75 75 74 74 73 70 70 68 70 72 75 76 74 74 75 74 73 73 74 74
76 76 76 75 74 74 71 69 70 69 68 69 69 70 71 71 72 71 71 71 70 69
76 76 74 74 74 74 71 69 69 71 68 67 66 67 67 65 65 65 67 68 67 66
76 76 75 73 72 70 69 68 69 70 70 69 70 69 66 67 65 63 63 63 63 63
76 75 73 71 68 71 70 68 69 70 71 71 68 67 67 68 65 62 60 59 61 61
75 73 72 68 69 70 69 68 69 68 69 67 64 58 61 67 66 65 65 62 60 58
75 71 68 67 68 67 67 66 66 66 67 65 65 57 58 62 66 65 64 64 65 66
75 69 66 65 65 65 67 64 63 64 65 64 60 54 55 60 67 65 65 65 66 65
73 66 64 63 63 66 66 64 60 61 62 62 60 53 54 63 66 64 64 65 65 66
67 65 63 62 63 62 65 61 61 58 58 56 60 51 52 62 68 63 64 62 61 54
65 64 63 63 61 60 61 61 58 57 56 55 56 54 50 53 66 65 65 63 61 59

GFSNIL_sfc_temp_024.txt.gz
Temp
81 84 85 82 81 83 78 81 80 79 80 82 81 80 80 77 76 76 73 76 77 78
80 80 80 80 81 82 79 78 78 79 81 81 82 82 82 78 77 77 73 78 78 77
81 81 81 81 78 77 76 75 74 75 78 81 81 81 81 78 79 78 76 77 77 77
82 83 81 81 80 80 74 72 73 73 75 77 77 78 77 79 80 79 78 78 78 78
82 83 79 80 80 80 73 73 73 73 73 72 73 75 75 73 74 74 75 74 74 73
82 82 78 78 78 78 74 73 74 74 74 73 73 71 70 70 67 66 70 72 71 68
82 82 79 76 76 77 77 76 75 75 75 75 74 73 72 69 66 65 64 64 64 64
82 82 78 76 77 75 74 74 74 76 77 77 76 74 72 71 67 63 61 60 62 61
82 80 76 76 76 74 73 73 73 73 74 73 73 59 62 70 71 70 68 66 67 68
82 79 73 75 75 72 70 71 70 70 72 71 68 58 59 65 73 73 72 72 73 74
81 75 73 73 72 70 70 69 69 69 71 70 65 56 57 63 73 72 72 72 72 70
78 72 71 71 71 70 67 67 70 72 71 70 66 54 55 66 73 71 70 70 68 71
71 70 70 71 69 70 69 67 69 69 69 61 66 51 53 63 75 70 70 68 65 53
67 66 68 67 68 70 68 67 67 63 65 64 62 60 51 53 74 73 72 70 67 65

GFSNIL_sfc_temp_027.txt.gz
Temp
85 87 87 83 83 85 81 81 79 78 79 82 83 82 80 78 76 77 76 74 73 74
83 82 82 82 83 84 80 81 77 78 79 81 83 81 80 78 79 79 77 78 78 77
84 84 83 81 82 79 78 75 74 75 79 80 80 76 73 79 79 77 75 72 77 77
85 84 82 81 83 80 76 75 74 74 78 78 79 80 78 74 77 79 77 78 77 78
85 83 81 81 83 80 76 76 75 75 76 76 76 76 74 75 76 74 73 73 73 74
85 80 77 82 81 80 79 77 76 74 74 74 74 73 73 72 69 67 66 70 70 70
84 80 78 81 81 80 79 78 75 75 76 75 74 74 73 71 68 65 64 63 64 63
85 80 79 81 78 77 78 78 78 74 76 76 77 74 73 71 69 67 66 67 67 64
85 82 78 81 76 75 75 76 76 76 75 75 75 60 63 71 73 73 71 71 71 70
82 78 78 81 76 74 72 74 74 75 75 72 71 59 59 65 75 73 73 74 75 76
82 76 78 78 73 71 72 72 71 73 73 71 67 57 57 61 75 74 73 73 72 71
80 77 77 75 71 72 71 70 71 71 71 71 68 55 56 63 74 72 71 69 64 71
75 71 74 75 71 71 72 72 73 72 68 63 69 52 54 59 76 71 71 69 66 54
72 70 71 70 71 70 69 70 69 68 68 66 61 62 52 53 73 73 72 72 69 65

GFSNIL_sfc_temp_033.txt.gz
Temp
73 71 70 70 69 67 67 68 70 69 71 71 71 71 71 70 69 70 69 69 68 68
72 71 70 70 69 67 71 73 70 70 70 71 71 70 69 68 68 69 69 69 68 67
72 71 71 70 68 68 72 71 69 69 69 69 69 69 69 69 70 69 68 68 68 67
72 72 71 69 68 70 72 71 68 69 70 69 68 68 67 66 67 67 68 68 68 68
72 71 70 69 73 73 71 68 68 67 70 68 67 67 66 66 64 62 63 63 64 66
70 70 69 69 72 72 69 67 68 67 66 66 66 66 65 66 65 64 63 63 63 63
70 70 69 68 69 71 69 67 67 66 65 64 64 68 67 66 64 62 61 60 60 59
70 70 69 68 70 73 70 67 66 65 64 64 64 65 64 67 64 61 59 59 60 60
71 71 69 68 70 70 68 66 64 63 62 61 63 59 62 67 67 65 61 59 59 59
72 71 70 68 69 69 68 66 63 62 61 57 56 58 59 64 64 61 60 59 59 62
71 70 67 66 66 68 68 67 62 60 59 56 56 56 57 63 60 58 56 56 58 55
70 68 67 65 65 67 67 67 65 63 59 55 53 54 54 60 59 57 55 54 54 55
67 68 66 66 65 67 67 65 65 62 57 58 53 52 52 58 59 55 54 53 53 56
62 65 67 66 65 65 64 62 62 59 57 53 51 52 51 53 58 59 56 53 51 51